Flag for Portugal Weather past 2 weeks in Funchal, Madeira, Portugal

66 °F

Broken clouds.

Feels Like: 66 °F
Forecast: N/A
Wind: 15 mph from North

Location: Aeroporto Da Madeira

Current Time: Nov 28, 2015 at 7:05:25 PM

Latest Report: Nov 28, 2015 at 6:30 PM

Visibility: N/A

Pressure: 30.24 "Hg

Humidity: 64%

Dew point: 54 °F

Location of FunchalLocation

Historic Weather in Funchal — Graph


Funchal temperature yesterday

Maximum temperature yesterday: 68 °F (at 1:00 PM)
Minimum temperature yesterday: 63 °F (at 6:30 AM)
Average temperature yesterday: 65 °F

Past Weeks' High & Low Weather Summary

High72 °F (Nov 14, 11:00 AM)88% (Nov 15, 2:30 AM)30.51 "Hg (Nov 15, 2:30 AM)
Low61 °F (Nov 22, 12:00 PM)43% (Nov 26, 6:00 PM)30.12 "Hg (Nov 27, 3:30 PM)
Average66 °F69%30.32 "Hg
* Reported Nov 13 6:00 PM — Nov 28 6:00 PM, Funchal, Weather by CustomWeather, © 2015

Note: Actual official high and low records may vary slightly from our data, if they occured in-between our weather recording intervals... More about our weather records


Funchal weather history for previous 24 hours

Time TempWeatherWind HumidityBarometerVisibility
6:00 PM
Sat, Nov 28
66 °FBroken clouds.15 mph64%30.24 "HgN/A
5:30 PM66 °FPartly sunny.16 mph64%30.24 "HgN/A
5:00 PM66 °FPartly sunny.13 mph73%30.24 "HgN/A
4:30 PM64 °FPartly sunny.16 mph73%30.24 "HgN/A
4:00 PM66 °FBroken clouds.20 mph73%30.24 "HgN/A
3:30 PM66 °FBroken clouds.15 mph68%30.24 "HgN/A
3:00 PM64 °FBroken clouds.17 mph73%30.24 "HgN/A
2:30 PM66 °FBroken clouds.17 mph68%30.24 "HgN/A
2:00 PM66 °FBroken clouds.15 mph73%30.24 "HgN/A
1:30 PM66 °FBroken clouds.14 mph68%30.24 "HgN/A
1:00 PM66 °FBroken clouds.14 mph73%30.24 "HgN/A
12:30 PM64 °FBroken clouds.16 mph78%30.27 "HgN/A
12:00 PM66 °FBroken clouds.16 mph68%30.27 "HgN/A
11:30 AM66 °FScattered clouds.18 mph68%30.27 "HgN/A
11:00 AM66 °FScattered clouds.20 mph68%30.27 "HgN/A
10:30 AM66 °FScattered clouds.16 mph64%30.27 "HgN/A
10:00 AM66 °FScattered clouds.18 mph68%30.24 "HgN/A
9:30 AM66 °FScattered clouds.16 mph68%30.24 "HgN/A
9:00 AM66 °FScattered clouds.14 mph68%30.24 "HgN/A
8:30 AM64 °FPassing clouds.13 mph73%30.24 "HgN/A
8:00 AM64 °FPassing clouds.17 mph73%30.21 "HgN/A
7:30 AM66 °FPassing clouds.17 mph68%30.21 "HgN/A
6:30 AM64 °FPassing clouds.16 mph73%30.21 "HgN/A
6:00 AM64 °FPassing clouds.16 mph68%30.21 "HgN/A
5:30 AM66 °FPassing clouds.16 mph64%30.18 "HgN/A
4:30 AM66 °FPassing clouds.18 mph68%30.18 "HgN/A
4:00 AM66 °FPassing clouds.16 mph68%30.18 "HgN/A
3:30 AM66 °FPassing clouds.16 mph73%30.18 "HgN/A
2:30 AM66 °FPassing clouds.16 mph64%30.18 "HgN/A
2:00 AM66 °FPassing clouds.17 mph64%30.18 "HgN/A
1:30 AM66 °FPassing clouds.17 mph68%30.18 "HgN/A
11:30 PM
Fri, Nov 27
64 °FPassing clouds.20 mph78%30.18 "HgN/A
11:00 PM66 °FPassing clouds.18 mph73%30.18 "HgN/A
10:30 PM66 °FPassing clouds.20 mph78%30.18 "HgN/A
10:00 PM64 °FPassing clouds.16 mph83%30.18 "HgN/A
9:30 PM66 °FPassing clouds.21 mph73%30.18 "HgN/A
9:00 PM66 °FPassing clouds.18 mph73%30.18 "HgN/A
8:30 PM66 °FPassing clouds.18 mph73%30.18 "HgN/A
8:00 PM64 °FPassing clouds.16 mph78%30.18 "HgN/A
7:30 PM66 °FPassing clouds.15 mph73%30.18 "HgN/A
7:00 PM66 °FScattered clouds.16 mph73%30.15 "HgN/A
Weather by CustomWeather, © 2015

See weather overviewHow to use our weather pages